DECAYED
Showing default

FLOCK 4Y 7, 55032 (Decayed)

Orbit data source: Space-Track

FLOCK 4Y 7, 55032 was a payload satellite owned by Planet (US) in LEO that was launched on Tue, 03 Jan 2023 UTC via an FALCON 9 launch vehicle from the Air Force Eastern Test Range (AFETR). Payload-class satellites include a variety of spacecraft equipped with specific instruments for various scientific and technological missions. These include communications satellites like Starlink; space stations such as the ISS; scientific satellites like the Hubble; Earth observation satellites from companies like Planet Labs, Umbra, and HawkEye 360; GPS; miniature CubeSats for education and research; and military/defense satellites.

Not visible in the next 10 days
Identifier
55032, 2023-001Z
Orbit
Decayed
Country
Flag of USUS
Related business
Manufacturer
Planet
Mission
Decayed Commercial Imaging
Bus & Motor
CUBESAT 3U, Unknown motor
Mass
5.7 kg wet, 5.7 kg dry
Launch date (UTC)
2023-01-03 (3 years ago)
Launch vehicle
FALCON 9
Launch site
Air Force Eastern Test Range (AFETR)
Object type
Payload
Rocket body
Debris
Shape & HBR
Box + 2 Pan, 1.0 m
Radar Cross Section
0.108 m², Medium (>0.1 m² and < 1m²)

Expand to show TLE details & history
Last TLE update: 4 months ago

TLE from 4 months ago
0 FLOCK 4Y 7
1 55032U 23001Z   25288.98250369  .14783467  25340-5  59139-3 0  9997
2 55032  97.3344   6.1483 0012159 259.0254 100.9679 16.42682313155845
Epoch: 2025-10-15T23:34Z
TLE epoch observation values (Epoch: 2025-10-15T23:34:48.318Z)
Latitude
-0.00008°
Longitude
-12.30178°
Altitude
163.456 km
Speed
7.807 km/s
True Right ascension
00h 24m 35s
True Declination
0° 00' 00"
Sunlit
Object was in full shadow at epoch
Visualization orbit readout
Latitude
Unknown
Longitude
Unknown
Altitude
Unknown
Speed
Unknown
Apparent Right ascension
Unknown
Apparent Declination
Unknown
Sunlit
N/A
Visualization observer readout
Local Sidereal Time
00:08:52
Azimuth
Unknown
Elevation
Unknown
Doppler factor
Unknown
Orbital elements
Apogee altitude
163.422 km
Perigee altitude
147.534 km
Semi-major axis
6,533.615 km
Eccentricity
0.00122
Inclination
97.3344°
RAAN
6.1483°
Arg. of periapsis
259.0254°
True anomaly
101.10465°
Mean anomaly
100.9679°
Eccentric anomaly
101.03628°
Mean motion
4.10973 °/min
Orbital period
87.6 mins
BSTAR
0.00059139
Loading maneuver chart data...
Computing Atmospheric mass density...
Loading historical data...
Loading historical data...
Loading historical data...
Loading historical data...
Loading historical data...
Loading historical data...
Loading historical data...

Documentation

Showing up to 5 results
|